Fullerton, CA

8:46 PM PST on January 22, 2018 (GMT -0800)
Fullerton Municipal

Weather History for KFUL - December, 2011

Change the Weather History Date:

Thursday, December 22, 2011

  Actual Average Record
Temperature  
Mean Temperature 57 °F 56 °F  
Max Temperature 69 °F 67 °F 78 °F (2003)
Min Temperature 45 °F 44 °F 33 °F (1998)
Degree Days  
Heating Degree Days 8 9  
Month to date heating degree days 204 192  
Since 1 July heating degree days 338 356  
Cooling Degree Days 0 0  
Month to date cooling degree days 0 0  
Year to date cooling degree days 1180 1251  
Growing Degree Days 7 (Base 50)    
Moisture  
Dew Point 26 °F    
Average Humidity 50    
Maximum Humidity 92    
Minimum Humidity 8    
Precipitation  
Precipitation 0.00 in 0.06 in 1.54 in (2010)
Month to date precipitation 0.71 1.07  
Year to date precipitation 8.24 12.90  
Since 1 July precipitation 2.67  
Snow  
Snow 0.00 in - - ()
Month to date snowfall 0.0  
Year to date snowfall 0.0  
Snow Depth 0.00 in    
Sea Level Pressure  
Sea Level Pressure 30.21 in    
Wind  
Wind Speed 7 mph (ENE)    
Max Wind Speed 23 mph    
Max Gust Speed 29 mph    
Visibility 8 miles    
Events      
T = Trace of Precipitation, MM = Missing Value Source: NWS Daily Summary

Daily Weather History Graph

Daily Weather History Graph

Search for Another Location

Airport or City:

Trip Planner

Search our weather history database for the weather conditions in past years. The results will help you decide how hot, cold, wet, or windy it might be!

Date:

Astronomy

Dec. 22, 2011 Rise Set
Actual Time 6:53 AM PST 4:47 PM PST
Civil Twilight 6:25 AM PST 5:15 PM PST
Nautical Twilight 5:54 AM PST 5:46 PM PST
Astronomical Twilight 5:24 AM PST 6:16 PM PST
Moon 4:42 AM PST (12/22) 3:02 PM PST (12/22)
Length of Visible Light 10h 49m
Length of Day
9h 54m
Waning Crescent, 5% of the Moon is Illuminated
Dec 22
Waning Crescent
Dec 24
New
Dec 31
First Quarter
Jan 8
Full
Jan 16
Last Quarter

Hourly Weather History & Observations

Time (PST) Temp. Windchill Dew Point Humidity Pressure Visibility Wind Dir Wind Speed Gust Speed Precip Events Conditions
12:53 AM 52.0 °F - 48.0 °F 86% 30.09 in 6.0 mi East 4.6 mph - N/A   Overcast
1:53 AM 53.1 °F - 48.0 °F 83% 30.11 in 6.0 mi Calm Calm - N/A   Haze
2:03 AM 51.8 °F - 46.4 °F 82% 30.11 in 6.0 mi Calm Calm - N/A   Haze
2:53 AM 50.0 °F - 45.0 °F 83% 30.11 in 6.0 mi East 4.6 mph - N/A   Haze
3:53 AM 48.9 °F - 45.0 °F 86% 30.12 in 6.0 mi East 4.6 mph - N/A   Partly Cloudy
4:53 AM 48.9 °F - 45.0 °F 86% 30.13 in 5.0 mi ESE 4.6 mph - N/A   Clear
5:53 AM 46.9 °F - 43.0 °F 86% 30.14 in 5.0 mi Calm Calm - N/A   Clear
6:53 AM 45.0 °F - 42.1 °F 90% 30.17 in 3.0 mi Calm Calm - N/A   Clear
7:01 AM 46.4 °F - 42.8 °F 87% 30.17 in 2.5 mi Calm Calm - N/A   Clear
7:29 AM 46.4 °F - 44.6 °F 93% 30.19 in 3.0 mi Calm Calm - N/A   Clear
7:53 AM 51.1 °F - 43.0 °F 74% 30.21 in 6.0 mi ENE 4.6 mph - N/A   Haze
8:53 AM 55.0 °F - 39.9 °F 57% 30.23 in 10.0 mi East 3.5 mph - N/A   Clear
9:53 AM 62.1 °F - 18.0 °F 18% 30.23 in 10.0 mi East 11.5 mph - N/A   Clear
10:53 AM 64.0 °F - 8.1 °F 11% 30.22 in 10.0 mi ENE 12.7 mph - N/A   Partly Cloudy
11:53 AM 66.0 °F - 7.0 °F 10% 30.20 in 10.0 mi ENE 18.4 mph - N/A   Clear
12:53 PM 69.1 °F - 7.0 °F 9% 30.19 in 10.0 mi ENE 10.4 mph 20.7 mph N/A   Clear
1:53 PM 68.0 °F - 7.0 °F 9% 30.20 in 10.0 mi ENE 8.1 mph 19.6 mph N/A   Clear
2:53 PM 66.0 °F - 8.1 °F 10% 30.21 in 10.0 mi ENE 16.1 mph 25.3 mph N/A   Clear
3:53 PM 64.0 °F - 6.1 °F 10% 30.25 in 10.0 mi ENE 13.8 mph 24.2 mph N/A   Clear
4:53 PM 60.1 °F - 6.1 °F 12% 30.26 in 10.0 mi East 12.7 mph - N/A   Clear
6:53 PM 57.0 °F - 6.1 °F 13% 30.30 in 10.0 mi ENE 9.2 mph - N/A   Clear
7:53 PM 55.0 °F - 6.1 °F 14% 30.31 in 10.0 mi Calm Calm - N/A   Clear
8:53 PM 55.0 °F - 6.1 °F 14% 30.32 in 10.0 mi Calm Calm - N/A   Clear
9:53 PM 48.9 °F - 14.0 °F 25% 30.34 in 10.0 mi NW 3.5 mph - N/A   Clear
10:53 PM 46.0 °F 44.8 °F 16.0 °F 30% 30.36 in 10.0 mi WNW 3.5 mph - N/A   Clear
11:53 PM 43.0 °F - 19.0 °F 38% 30.37 in 10.0 mi Calm Calm - N/A   Clear